SQ6MTB Weather Reports


Display with metric or nautical units.
time (UTC)temp
F
wind
direction
speed
MPH
gust
MPH
rain 1hr
in
rain 24hr
in
rain mn
in
humidity
%
barometer
mb
20260503025058 59 212 6.0 13.0 0.00 0.00 0.00 42 1015.4
20260503024523 60 189 3.0 14.0 0.00 0.00 0.00 42 1015.4
20260503024045 59 146 3.0 11.0 0.00 0.00 0.00 42 1015.6
20260503023509 59 192 3.0 11.0 0.00 0.00 0.00 42 1015.6
20260503023029 60 225 3.0 12.0 0.00 0.00 0.00 42 1015.6
20260503022545 59 212 4.0 12.0 0.00 0.00 0.00 42 1015.6
20260503022004 59 206 4.0 13.0 0.00 0.00 0.00 43 1015.6
20260503021530 58 179 5.0 13.0 0.00 0.00 0.00 44 1015.6
20260503021048 57 184 3.0 9.0 0.00 0.00 0.00 45 1015.6
20260503020515 56 190 3.0 11.0 0.00 0.00 0.00 47 1015.8
20260503020030 54 182 5.0 11.0 0.00 0.00 0.00 49 1015.8
20260503015553 53 213 3.0 7.0 0.00 0.00 0.00 52 1015.8
20260503015016 53 161 0.0 3.0 0.00 0.00 0.00 53 1015.8
20260503014543 53 60 1.0 3.0 0.00 0.00 0.00 52 1015.8
20260503014054 54 81 0.0 3.0 0.00 0.00 0.00 51 1015.9
20260503013511 55 176 1.0 3.0 0.00 0.00 0.00 49 1016.0
20260503013040 56 342 0.0 3.0 0.00 0.00 0.00 47 1016.0
20260503012602 57 64 1.0 3.0 0.00 0.00 0.00 46 1015.9
20260503012025 58 62 1.0 7.0 0.00 0.00 0.00 44 1016.0
20260503011546 58 209 0.0 5.0 0.00 0.00 0.00 42 1016.0
20260503011104 58 165 0.0 6.0 0.00 0.00 0.00 42 1016.0
20260503010520 58 190 1.0 6.0 0.00 0.00 0.00 42 1016.1
20260503010049 58 195 1.0 5.0 0.00 0.00 0.00 41 1016.1
20260503005506 59 202 1.0 5.0 0.00 0.00 0.00 41 1016.1
20260503005036 59 163 1.0 5.0 0.00 0.00 0.00 41 1016.1
20260503004600 60 155 0.0 5.0 0.00 0.00 0.00 39 1016.0
20260503004021 60 190 1.0 7.0 0.00 0.00 0.00 38 1016.1
20260503003540 61 168 0.0 5.0 0.00 0.00 0.00 37 1016.2
20260503003006 61 170 1.0 5.0 0.00 0.00 0.00 36 1016.2
20260503002527 62 180 2.0 7.0 0.00 0.00 0.00 35 1016.2
20260503002043 62 176 3.0 6.0 0.00 0.00 0.00 35 1016.3
20260503001606 61 165 1.0 7.0 0.00 0.00 0.00 35 1016.3
20260503001024 61 184 1.0 8.0 0.00 0.00 0.00 36 1016.5
20260503000544 61 168 2.0 10.0 0.00 0.00 0.00 35 1016.5
20260503000010 60 190 2.0 6.0 0.00 0.00 0.00 36 1016.5
20260502235529 61 196 2.0 7.0 0.00 0.00 0.00 36 1016.6
20260502235101 61 194 2.0 5.0 0.00 0.00 0.00 36 1016.7
20260502234529 60 199 2.0 6.0 0.00 0.00 0.00 36 1016.8
20260502234041 60 251 1.0 6.0 0.00 0.00 0.00 36 1016.8
20260502233602 59 130 1.0 8.0 0.00 0.00 0.00 37 1016.8
20260502233027 59 193 1.0 8.0 0.00 0.00 0.00 38 1016.9
20260502232544 59 181 1.0 7.0 0.00 0.00 0.00 39 1016.9
20260502232102 58 203 1.0 6.0 0.00 0.00 0.00 40 1017.0
20260502231526 57 194 2.0 6.0 0.00 0.00 0.00 42 1017.0
20260502231043 56 231 1.0 5.0 0.00 0.00 0.00 44 1017.0
20260502230604 56 205 0.0 9.0 0.00 0.00 0.00 47 1017.0
20260502230021 56 184 3.0 9.0 0.00 0.00 0.00 52 1016.9
20260502225547 56 135 0.0 2.0 0.00 0.00 0.00 53 1017.0
20260502225005 57 182 0.0 1.0 0.00 0.00 0.00 53 1017.2
20260502224533 57 258 0.0 0.0 0.00 0.00 0.00 52 1017.3
20260502224053 57 258 0.0 4.0 0.00 0.00 0.00 51 1017.4
20260502223520 58 258 1.0 7.0 0.00 0.00 0.00 50 1017.5
20260502223039 58 257 4.0 7.0 0.00 0.00 0.00 51 1017.6
20260502222558 59 118 0.0 0.0 0.00 0.00 0.00 50 1017.4
20260502222017 59 98 0.0 1.0 0.00 0.00 0.00 49 1017.4
20260502221542 60 98 0.0 1.0 0.00 0.00 0.00 48 1017.4
20260502221059 60 96 0.0 2.0 0.00 0.00 0.00 48 1017.3
20260502220524 61 108 0.0 3.0 0.00 0.00 0.00 47 1017.4
20260502220052 61 111 0.0 3.0 0.00 0.00 0.00 46 1017.3
20260502215558 62 121 0.0 2.0 0.00 0.00 0.00 46 1017.4
20260502215015 62 130 0.0 5.0 0.00 0.00 0.00 45 1017.4
20260502214535 63 163 0.0 5.0 0.00 0.00 0.00 45 1017.5
20260502214054 63 141 1.0 5.0 0.00 0.00 0.00 44 1017.5
20260502213504 64 161 2.0 5.0 0.00 0.00 0.00 43 1017.6
20260502213037 64 174 2.0 6.0 0.00 0.00 0.00 43 1017.6
20260502212552 64 141 2.0 7.0 0.00 0.00 0.00 42 1017.6
20260502212020 64 157 3.0 8.0 0.00 0.00 0.00 42 1017.7
20260502211541 64 140 4.0 9.0 0.00 0.00 0.00 42 1017.8
20260502211002 65 117 3.0 9.0 0.00 0.00 0.00 41 1017.7
20260502210521 65 148 4.0 9.0 0.00 0.00 0.00 41 1017.9
20260502210036 65 144 4.0 10.0 0.00 0.00 0.00 41 1017.9
20260502205556 65 172 5.0 10.0 0.00 0.00 0.00 40 1017.8
20260502205013 65 144 5.0 11.0 0.00 0.00 0.00 40 1017.8
20260502204533 65 142 4.0 11.0 0.00 0.00 0.00 40 1017.8
20260502204052 65 144 5.0 11.0 0.00 0.00 0.00 40 1017.8
20260502203509 66 139 6.0 12.0 0.00 0.00 0.00 40 1017.8
20260502203049 66 142 6.0 11.0 0.00 0.00 0.00 40 1017.9
20260502202557 66 152 6.0 10.0 0.00 0.00 0.00 40 1017.9
20260502202014 66 153 5.0 10.0 0.00 0.00 0.00 40 1018.0
20260502201539 66 110 5.0 9.0 0.00 0.00 0.00 39 1017.9
20260502201052 66 146 5.0 8.0 0.00 0.00 0.00 39 1018.1
20260502200507 66 153 4.0 8.0 0.00 0.00 0.00 39 1018.0
20260502200033 67 143 5.0 8.0 0.00 0.00 0.00 38 1018.0
20260502195553 67 179 5.0 8.0 0.00 0.00 0.00 38 1017.9
20260502195007 67 145 4.0 8.0 0.00 0.00 0.00 38 1018.1
20260502194536 67 157 4.0 8.0 0.00 0.00 0.00 37 1018.0
20260502194044 67 121 4.0 9.0 0.00 0.00 0.00 37 1018.1
20260502193510 68 128 5.0 10.0 0.00 0.00 0.00 37 1018.1
20260502193032 68 157 6.0 10.0 0.00 0.00 0.00 37 1018.1
20260502192540 68 149 6.0 10.0 0.00 0.00 0.00 37 1018.2
20260502192100 68 162 5.0 9.0 0.00 0.00 0.00 37 1018.0
20260502191535 68 155 6.0 9.0 0.00 0.00 0.00 36 1018.1
20260502191048 68 159 3.0 8.0 0.00 0.00 0.00 37 1018.1
20260502190602 68 119 3.0 8.0 0.00 0.00 0.00 36 1018.1
20260502190021 69 121 5.0 8.0 0.00 0.00 0.00 36 1018.1
20260502185546 69 155 5.0 9.0 0.00 0.00 0.00 36 1018.1
20260502185003 69 152 5.0 10.0 0.00 0.00 0.00 36 1018.1
20260502184538 69 135 4.0 10.0 0.00 0.00 0.00 36 1018.1
20260502184051 69 186 5.0 9.0 0.00 0.00 0.00 35 1018.1
20260502183522 69 187 4.0 8.0 0.00 0.00 0.00 34 1018.0
20260502183035 69 155 3.0 7.0 0.00 0.00 0.00 34 1018.0
20260502182545 70 136 2.0 5.0 0.00 0.00 0.00 34 1018.0
20260502182002 71 222 0.0 0.0 0.00 0.00 0.00 33 1017.9
20260502181521 71 222 0.0 0.0 0.00 0.00 0.00 32 1017.7
20260502181050 72 222 0.0 3.0 0.00 0.00 0.00 31 1017.9
20260502180507 72 222 0.0 3.0 0.00 0.00 0.00 29 1017.8
20260502164048 77 265 3.0 7.0 0.00 0.00 0.00 26 1018.1
20260502163511 78 268 1.0 7.0 0.00 0.00 0.00 25 1018.1
20260502163044 78 229 3.0 7.0 0.00 0.00 0.00 26 1018.2
20260502162548 79 196 2.0 6.0 0.00 0.00 0.00 24 1018.3
20260502162001 79 190 2.0 6.0 0.00 0.00 0.00 25 1018.3
20260502161530 79 274 3.0 8.0 0.00 0.00 0.00 25 1018.3
20260502161049 79 205 3.0 9.0 0.00 0.00 0.00 24 1018.4
20260502160518 79 262 3.0 9.0 0.00 0.00 0.00 25 1018.5
20260502152030 80 136 4.0 9.0 0.00 0.00 0.00 25 1019.2
20260502151550 80 240 4.0 9.0 0.00 0.00 0.00 24 1019.2
20260502151058 80 277 1.0 5.0 0.00 0.00 0.00 24 1019.3
20260502150516 80 213 2.0 10.0 0.00 0.00 0.00 23 1019.4
20260502130529 78 181 4.0 10.0 0.00 0.00 0.00 23 1021.0
20260502123528 78 197 5.0 11.0 0.00 0.00 0.00 25 1021.3
20260502123057 78 266 3.0 11.0 0.00 0.00 0.00 25 1021.3
20260502122504 77 257 5.0 10.0 0.00 0.00 0.00 25 1021.4
20260502122034 77 226 2.0 8.0 0.00 0.00 0.00 24 1021.5
20260502121558 77 181 2.0 12.0 0.00 0.00 0.00 24 1021.5
20260502121010 78 102 6.0 12.0 0.00 0.00 0.00 24 1021.6
20260502120529 78 188 3.0 7.0 0.00 0.00 0.00 25 1021.5
20260502115505 77 334 2.0 8.0 0.00 0.00 0.00 26 1021.7
20260502115038 77 250 2.0 9.0 0.00 0.00 0.00 25 1021.8
20260502114555 77 107 4.0 9.0 0.00 0.00 0.00 25 1021.8
20260502114020 76 164 0.0 11.0 0.00 0.00 0.00 25 1021.9
20260502113542 77 209 5.0 12.0 0.00 0.00 0.00 26 1022.1
20260502113005 77 147 6.0 12.0 0.00 0.00 0.00 26 1022.1
20260502112525 77 157 2.0 11.0 0.00 0.00 0.00 27 1022.2
20260502112043 77 107 2.0 8.0 0.00 0.00 0.00 26 1022.2
20260502111508 77 133 3.0 8.0 0.00 0.00 0.00 25 1022.4
20260502111028 77 269 4.0 9.0 0.00 0.00 0.00 25 1022.4
20260502110545 76 198 4.0 10.0 0.00 0.00 0.00 26 1022.5
20260502110106 76 252 4.0 12.0 0.00 0.00 0.00 27 1022.5
20260502105529 77 232 4.0 12.0 0.00 0.00 0.00 25 1022.7
20260502105049 77 134 4.0 9.0 0.00 0.00 0.00 26 1022.7
20260502104515 76 231 4.0 9.0 0.00 0.00 0.00 26 1022.7
20260502104033 76 172 4.0 11.0 0.00 0.00 0.00 26 1022.8
20260502103552 76 298 2.0 11.0 0.00 0.00 0.00 27 1022.8
20260502103010 76 168 3.0 9.0 0.00 0.00 0.00 27 1022.9
20260502102529 75 253 5.0 10.0 0.00 0.00 0.00 26 1023.0
20260502102049 75 234 1.0 9.0 0.00 0.00 0.00 26 1023.1
20260502101505 76 113 3.0 9.0 0.00 0.00 0.00 27 1023.2
20260502101036 76 129 1.0 8.0 0.00 0.00 0.00 27 1023.1
20260502100555 76 186 3.0 8.0 0.00 0.00 0.00 27 1023.3
20260502091531 73 165 0.0 9.0 0.00 0.00 0.00 30 1024.0
20260502091050 73 134 1.0 5.0 0.00 0.00 0.00 27 1024.1
20260502090515 73 115 2.0 10.0 0.00 0.00 0.00 28 1024.0
20260502071102 68 190 3.0 6.0 0.00 0.00 0.00 37 1024.5
20260502070522 68 190 2.0 7.0 0.00 0.00 0.00 38 1024.6
20260502070047 68 154 1.0 8.0 0.00 0.00 0.00 37 1024.5
20260502065554 67 190 2.0 8.0 0.00 0.00 0.00 39 1024.5
20260502065011 67 290 0.0 6.0 0.00 0.00 0.00 39 1024.6
20260502064539 67 172 1.0 7.0 0.00 0.00 0.00 39 1024.6
20260502064050 67 139 2.0 6.0 0.00 0.00 0.00 40 1024.7
20260502063518 67 136 0.0 2.0 0.00 0.00 0.00 46 1024.6
20260502063040 66 113 0.0 0.0 0.00 0.00 0.00 49 1024.7
20260502062556 65 113 0.0 0.0 0.00 0.00 0.00 50 1024.8
20260502062015 64 113 0.0 0.0 0.00 0.00 0.00 51 1024.9
20260502061530 63 113 0.0 0.0 0.00 0.00 0.00 52 1025.0
20260502061048 62 113 0.0 0.0 0.00 0.00 0.00 54 1024.9
20260502060512 61 113 0.0 0.0 0.00 0.00 0.00 55 1024.9
20260502060032 60 113 0.0 0.0 0.00 0.00 0.00 55 1024.9
20260502055556 60 113 0.0 0.0 0.00 0.00 0.00 56 1024.8
20260502055009 58 113 0.0 0.0 0.00 0.00 0.00 60 1024.8
20260502054538 57 113 0.0 0.0 0.00 0.00 0.00 61 1024.8
20260502054055 56 113 0.0 0.0 0.00 0.00 0.00 62 1024.9
20260502053512 55 113 0.0 0.0 0.00 0.00 0.00 65 1024.9
20260502053032 53 113 0.0 0.0 0.00 0.00 0.00 66 1024.7
20260502052555 52 113 0.0 0.0 0.00 0.00 0.00 69 1024.7
20260502052018 50 113 0.0 0.0 0.00 0.00 0.00 71 1024.7
20260502051537 48 113 0.0 0.0 0.00 0.00 0.00 73 1024.7
20260502051054 47 113 0.0 0.0 0.00 0.00 0.00 75 1024.7
20260502050514 46 113 0.0 0.0 0.00 0.00 0.00 74 1024.6
20260502050036 45 113 0.0 0.0 0.00 0.00 0.00 75 1024.7
20260502045552 45 113 0.0 0.0 0.00 0.00 0.00 76 1024.7
20260502045007 44 113 0.0 0.0 0.00 0.00 0.00 76 1024.6
20260502044526 44 113 0.0 0.0 0.00 0.00 0.00 76 1024.6
20260502044046 43 113 0.0 1.0 0.00 0.00 0.00 76 1024.6
20260502043505 43 113 0.0 1.0 0.00 0.00 0.00 76 1024.7
20260502043036 43 113 0.0 0.0 0.00 0.00 0.00 76 1024.6
20260502042553 43 113 0.0 0.0 0.00 0.00 0.00 77 1024.6
20260502042021 42 113 0.0 0.0 0.00 0.00 0.00 77 1024.6
20260502041545 42 113 0.0 3.0 0.00 0.00 0.00 77 1024.5
20260502041006 42 113 0.0 3.0 0.00 0.00 0.00 76 1024.5
20260502040524 42 111 0.0 0.0 0.00 0.00 0.00 76 1024.5
20260502040035 42 111 0.0 0.0 0.00 0.00 0.00 76 1024.6
20260502035555 42 111 0.0 0.0 0.00 0.00 0.00 76 1024.6
20260502035020 42 111 0.0 0.0 0.00 0.00 0.00 76 1024.5
20260502034540 42 111 0.0 0.0 0.00 0.00 0.00 76 1024.6
20260502034100 42 111 0.0 0.0 0.00 0.00 0.00 76 1024.6
20260502033518 42 111 0.0 0.0 0.00 0.00 0.00 76 1024.7
20260502033039 42 111 0.0 0.0 0.00 0.00 0.00 76 1024.6
20260502032555 43 111 0.0 0.0 0.00 0.00 0.00 76 1024.7
20260502032019 43 111 0.0 0.0 0.00 0.00 0.00 75 1024.7
20260502031539 43 111 0.0 0.0 0.00 0.00 0.00 75 1024.7
20260502031058 43 111 0.0 0.0 0.00 0.00 0.00 75 1024.7
20260502030512 43 111 0.0 0.0 0.00 0.00 0.00 75 1024.8
20260502030041 43 111 0.0 0.0 0.00 0.00 0.00 75 1024.8
20260502025600 43 111 0.0 0.0 0.00 0.00 0.00 74 1024.8